Gulf Shores, AL

12:56 AM CDT on March 23, 2017 (GMT -0500)
ME5848 | | Change Station

Elev 29 ft 30.30 °N, 87.70 °W | Updated 9 minutes ago

Scattered Clouds
Scattered Clouds
64.0 °F
Feels Like 64.0 °F
N
0.0
Wind Variable Wind from North
Gusts 0.0 mph

Today
High -- | Low -- °F
--% Chance of Precip.
Yesterday
High -- | Low -- °F
Precip. -- in
Pressure 30.17 in
Visibility 10.0 miles
Clouds Scattered Clouds 8000 ft
Dew Point 62 °F
Humidity 93%
Rainfall in
Snow Depth Not available.
6:50 AM 7:04 PM
Waning Crescent, 26% visible
METAR KJKA 230535Z AUTO 03004KT 10SM SCT080 18/17 A3017 RMK AO2 T01840169
Pressure 30.17 in
Visibility 10.0 miles
Clouds Scattered Clouds 8000 ft
Dew Point 62 °F
Humidity 93%
Rainfall in
Snow Depth Not available.
6:50 AM 7:04 PM
Waning Crescent, 26% visible
METAR KJKA 230535Z AUTO 03004KT 10SM SCT080 18/17 A3017 RMK AO2 T01840169

Get Severe Weather Alerts

Thanks for signing up!

Be on the lookout for a verification email in your inbox.

You'll start receiving the daily forecast at 8 AM.

×

10-Day Weather Forecast

Almanac

Astronomy

Mar. 23, 2017 Rise Set
Actual Time
Civil Twilight
Nautical Twilight
Astronomical Twilight
Moon
Length of Visible Light
Length of Day
Tomorrow will be .
, % of the Moon is Illuminated

Today's Extremes

State Highs State Lows

Community

WunderPhotos

Upload Photos

1,962,540 photos uploaded!

WunderBlog® & News

Nearby

Air Quality

  Air Quality AQ Index Pollutant
Not available.

Snow Depth

Station Depth Elevation

Earthquake Activity

City Distance Mag. Time & Date
Minimum magnitude displayed is 2.5.

Earthquake Activity

City Distance Mag. Time & Date
Minimum magnitude displayed is 2.5.

Coastal Water Temperatures

Place Temperature

Stations

Nearby Weather Stations

Station Location Temp. Windchill Dew Point Humidity Wind Precip. Elev Updated Type
                   

Watches & Warnings

There are currently no watches in effect.